Alamosa, CO

8:27 AM MDT on October 20, 2019 (GMT -0600)
San Luis Valley Regional / Bergman Field

Weather History for KALS - June, 2019

Change the Weather History Date:

Saturday, June 1, 2019

  Actual Average Record
Temperature  
Mean Temperature 58 °F 56 °F  
Max Temperature 76 °F 74 °F 90 °F (2002)
Min Temperature 39 °F 37 °F 26 °F (1988)
Degree Days  
Heating Degree Days 7 9  
Month to date heating degree days 7 9  
Since 1 June heating degree days 7 9  
Since 1 July heating degree days 8432 8435  
Cooling Degree Days 0 0  
Month to date cooling degree days 0 0  
Year to date cooling degree days 0 0  
Since 1 June cooling degree days 0 0  
Growing Degree Days 7 (Base 50)    
Moisture  
Dew Point 33 °F    
Average Humidity 47    
Maximum Humidity 79    
Minimum Humidity 15    
Precipitation  
Precipitation T in 0.02 in 0.16 in (1973)
Month to date precipitation T 0.02  
Year to date precipitation 4.69 2.24  
Snow  
Snow 0.00 in 0.00 in 0.00 in (2002)
Month to date snowfall 0.0 0.0  
Since 1 June snowfall 0.0 0.0  
Since 1 July snowfall 54.9 27.6  
Snow Depth 0.00 in    
Sea Level Pressure  
Sea Level Pressure 29.98 in    
Wind  
Wind Speed 10 mph (South)    
Max Wind Speed 30 mph    
Max Gust Speed 39 mph    
Visibility 10 miles    
Events Rain , Thunderstorm    
T = Trace of Precipitation, MM = Missing Value Source: NWS Daily Summary

Daily Weather History Graph

Daily Weather History Graph

Search for Another Location

Airport or City:

Astronomy

Jun. 01, 2019 Rise Set
Actual Time 5:44 AM MDT 8:18 PM MDT
Civil Twilight 5:13 AM MDT 8:49 PM MDT
Nautical Twilight 4:35 AM MDT 9:27 PM MDT
Astronomical Twilight 3:53 AM MDT 10:09 PM MDT
Moon 4:46 AM MDT (6/1) 6:37 PM MDT (6/1)
Length of Visible Light 15h 35m
Length of Day
14h 34m
Waning Crescent, 3% of the Moon is Illuminated
Jun 1
Waning Crescent
Jun 3
New
Jun 10
First Quarter
Jun 17
Full
Jun 25
Last Quarter

Hourly Weather History & Observations

Time (MDT) Temp. Windchill Dew Point Humidity Pressure Visibility Wind Dir Wind Speed Gust Speed Precip Events Conditions
12:52 AM 44.1 °F 41.5 °F 30.0 °F 58% 30.00 in 10.0 mi West 4.6 mph - N/A   Clear
1:52 AM 42.1 °F 40.2 °F 34.0 °F 73% 30.01 in 10.0 mi ESE 3.5 mph - N/A   Clear
2:52 AM 39.9 °F 37.8 °F 33.1 °F 77% 30.00 in 10.0 mi ENE 3.5 mph - N/A   Mostly Cloudy
3:52 AM 41.0 °F 35.2 °F 33.1 °F 73% 30.01 in 10.0 mi SSW 9.2 mph - N/A   Mostly Cloudy
4:52 AM 42.1 °F 37.1 °F 32.0 °F 67% 29.99 in 10.0 mi East 8.1 mph - N/A   Partly Cloudy
5:52 AM 43.0 °F 37.2 °F 32.0 °F 65% 29.99 in 10.0 mi ESE 10.4 mph 16.1 mph 0.00 in   Mostly Cloudy
6:52 AM 43.0 °F 41.3 °F 32.0 °F 65% 30.02 in 10.0 mi NNE 3.5 mph - N/A   Mostly Cloudy
7:52 AM 50.0 °F - 30.9 °F 48% 30.02 in 10.0 mi North 3.5 mph - N/A   Clear
8:52 AM 55.0 °F - 30.9 °F 40% 30.05 in 10.0 mi North 3.5 mph - N/A   Clear
9:52 AM 61.0 °F - 34.0 °F 36% 30.03 in 10.0 mi SSE 3.5 mph - N/A   Clear
10:52 AM 66.0 °F - 39.0 °F 37% 30.01 in 10.0 mi South 10.4 mph - N/A   Clear
11:52 AM 69.1 °F - 37.0 °F 31% 29.99 in 10.0 mi South 6.9 mph - N/A   Clear
12:52 PM 73.0 °F - 27.0 °F 18% 29.94 in 10.0 mi South 10.4 mph 21.9 mph N/A   Partly Cloudy
1:52 PM 73.9 °F - 25.0 °F 16% 29.93 in 10.0 mi South 13.8 mph 24.2 mph N/A   Partly Cloudy
2:43 PM 73.9 °F - 25.0 °F 16% 30.16 in 10.0 mi West 13.8 mph 27.6 mph 0.00 in   Partly Cloudy
2:52 PM 75.0 °F - 27.0 °F 17% 29.92 in 10.0 mi WSW 19.6 mph 32.2 mph 0.00 in   Clear
3:52 PM 73.0 °F - 23.0 °F 15% 29.90 in 10.0 mi SW 9.2 mph 19.6 mph N/A   Clear
4:49 PM 71.6 °F - 26.6 °F 19% 30.12 in 10.0 mi SW 10.4 mph - 0.00 in Rain , Thunderstorm Light Rain
4:52 PM 70.0 °F - 26.1 °F 19% 29.90 in 10.0 mi SW 10.4 mph - 0.00 in Rain , Thunderstorm Light Rain
5:14 PM 63.0 °F - 36.0 °F 37% 30.14 in 10.0 mi South 21.9 mph 38.0 mph 0.00 in   Overcast
5:52 PM 64.9 °F - 37.9 °F 37% 29.92 in 10.0 mi SSE 21.9 mph 31.1 mph 0.00 in   Partly Cloudy
6:52 PM 63.0 °F - 39.0 °F 41% 29.92 in 10.0 mi SSE 20.7 mph 32.2 mph N/A   Clear
7:52 PM 60.1 °F - 39.0 °F 46% 29.91 in 10.0 mi ESE 12.7 mph - N/A   Clear
8:52 PM 57.0 °F - 39.9 °F 53% 29.95 in 10.0 mi South 13.8 mph - N/A   Clear
9:52 PM 57.0 °F - 37.9 °F 49% 29.91 in 10.0 mi South 15.0 mph - N/A   Partly Cloudy
10:52 PM 57.9 °F - 35.1 °F 42% 29.92 in 10.0 mi SSW 6.9 mph 18.4 mph N/A   Mostly Cloudy
11:52 PM 50.0 °F - 37.9 °F 63% 29.94 in 10.0 mi South 8.1 mph - N/A   Clear